| time (UTC) | temp F | wind direction | speed MPH | gust MPH | rain 1hr in | rain 24hr in | rain mn in | humidity % | barometer mb |
| 20260902164609 | 76 | 336 | 2.0 | 4.0 | 0.00 | 0.00 | 0.00 | 44 | 1019.2 |
| 20260902163109 | 77 | 310 | 1.0 | 4.0 | 0.00 | 0.00 | 0.00 | 42 | 1019.2 |
| 20260902161609 | 51 | 317 | 0.0 | 0.0 | 0.00 | 0.00 | 0.00 | 90 | 1021.9 |
| 20260902160109 | 79 | 307 | 2.0 | 4.0 | 0.00 | 0.00 | 0.00 | 39 | 1019.2 |
| 20260902154609 | 78 | 277 | 6.0 | 11.0 | 0.00 | 0.00 | 0.00 | 39 | 1019.2 |
| 20260902153113 | 78 | 290 | 0.0 | 7.0 | 0.00 | 0.00 | 0.00 | 40 | 1019.4 |
| 20260902151613 | 78 | 236 | 1.0 | 7.0 | 0.00 | 0.00 | 0.00 | 41 | 1019.3 |
| 20260902150113 | 62 | 335 | 1.0 | 2.0 | 0.00 | 0.00 | 0.00 | 68 | 1021.3 |
| 20260902144613 | 78 | 269 | 4.0 | 7.0 | 0.00 | 0.00 | 0.00 | 41 | 1019.6 |
| 20260902143113 | 78 | 218 | 1.0 | 7.0 | 0.00 | 0.00 | 0.00 | 39 | 1019.6 |
| 20260902141613 | 79 | 286 | 4.0 | 8.0 | 0.00 | 0.00 | 0.00 | 40 | 1019.6 |
| 20260902140113 | 79 | 271 | 4.0 | 7.0 | 0.00 | 0.00 | 0.00 | 41 | 1019.7 |
| 20260902133112 | 79 | 243 | 2.0 | 7.0 | 0.00 | 0.00 | 0.00 | 41 | 1019.9 |
| 20260902131612 | 78 | 309 | 1.0 | 4.0 | 0.00 | 0.00 | 0.00 | 41 | 1020.0 |
| 20260902130113 | 79 | 202 | 0.0 | 7.0 | 0.00 | 0.00 | 0.00 | 42 | 1020.2 |
| 20260902121612 | 77 | 207 | 3.0 | 5.0 | 0.00 | 0.00 | 0.00 | 45 | 1020.6 |
| 20260902120112 | 78 | 196 | 4.0 | 8.0 | 0.00 | 0.00 | 0.00 | 44 | 1020.8 |
| 20260902114612 | 77 | 215 | 3.0 | 8.0 | 0.00 | 0.00 | 0.00 | 46 | 1021.0 |
| 20260902113111 | 77 | 144 | 4.0 | 8.0 | 0.00 | 0.00 | 0.00 | 47 | 1021.1 |
| 20260902111611 | 76 | 186 | 4.0 | 7.0 | 0.00 | 0.00 | 0.00 | 48 | 1021.1 |
| 20260902110111 | 76 | 259 | 5.0 | 11.0 | 0.00 | 0.00 | 0.00 | 48 | 1021.2 |
| 20260902104611 | 76 | 136 | 2.0 | 7.0 | 0.00 | 0.00 | 0.00 | 46 | 1021.3 |
| 20260902103111 | 76 | 178 | 4.0 | 7.0 | 0.00 | 0.00 | 0.00 | 48 | 1021.4 |
| 20260902101611 | 75 | 258 | 2.0 | 8.0 | 0.00 | 0.00 | 0.00 | 48 | 1021.6 |
| 20260902100111 | 76 | 159 | 4.0 | 8.0 | 0.00 | 0.00 | 0.00 | 47 | 1021.8 |
| 20260902094611 | 75 | 277 | 2.0 | 4.0 | 0.00 | 0.00 | 0.00 | 49 | 1021.7 |
| 20260902093111 | 75 | 137 | 6.0 | 10.0 | 0.00 | 0.00 | 0.00 | 51 | 1021.9 |
| 20260902091611 | 75 | 239 | 0.0 | 3.0 | 0.00 | 0.00 | 0.00 | 53 | 1021.9 |
| 20260902090110 | 74 | 170 | 1.0 | 4.0 | 0.00 | 0.00 | 0.00 | 53 | 1022.0 |
| 20260902084611 | 73 | 174 | 1.0 | 4.0 | 0.00 | 0.00 | 0.00 | 55 | 1022.1 |
| 20260902083110 | 72 | 165 | 0.0 | 0.0 | 0.00 | 0.00 | 0.00 | 58 | 1022.4 |
| 20260902081610 | 70 | 161 | 0.0 | 0.0 | 0.00 | 0.00 | 0.00 | 62 | 1022.4 |
| 20260902074610 | 66 | 180 | 2.0 | 4.0 | 0.00 | 0.00 | 0.00 | 68 | 1022.4 |
| 20260902071610 | 63 | 172 | 2.0 | 4.0 | 0.00 | 0.00 | 0.00 | 74 | 1022.3 |
| 20260902070110 | 62 | 148 | 0.0 | 0.0 | 0.00 | 0.00 | 0.00 | 78 | 1022.2 |
| 20260902064610 | 60 | 148 | 1.0 | 3.0 | 0.00 | 0.00 | 0.00 | 81 | 1022.1 |
| 20260902063110 | 59 | 151 | 1.0 | 3.0 | 0.00 | 0.00 | 0.00 | 83 | 1022.0 |
| 20260902060110 | 55 | 317 | 0.0 | 0.0 | 0.00 | 0.00 | 0.00 | 88 | 1021.9 |
| 20260902054609 | 53 | 317 | 0.0 | 0.0 | 0.00 | 0.00 | 0.00 | 89 | 1021.9 |
| 20260902053109 | 53 | 317 | 0.0 | 0.0 | 0.00 | 0.00 | 0.00 | 89 | 1021.8 |
| 20260902051609 | 52 | 317 | 0.0 | 0.0 | 0.00 | 0.00 | 0.00 | 90 | 1021.9 |
| 20260902050110 | 52 | 317 | 0.0 | 0.0 | 0.00 | 0.00 | 0.00 | 90 | 1021.8 |
| 20260902044609 | 51 | 317 | 0.0 | 0.0 | 0.00 | 0.00 | 0.00 | 90 | 1021.8 |
| 20260902043109 | 51 | 317 | 0.0 | 0.0 | 0.00 | 0.00 | 0.00 | 89 | 1021.7 |
| 20260902041609 | 51 | 317 | 0.0 | 0.0 | 0.00 | 0.00 | 0.00 | 89 | 1021.6 |
| 20260902034615 | 52 | 317 | 0.0 | 0.0 | 0.00 | 0.00 | 0.00 | 88 | 1021.6 |
| 20260902033114 | 52 | 317 | 0.0 | 0.0 | 0.00 | 0.00 | 0.00 | 88 | 1021.6 |
| 20260902031614 | 52 | 317 | 0.0 | 0.0 | 0.00 | 0.00 | 0.00 | 87 | 1021.6 |
| 20260902030113 | 53 | 317 | 0.0 | 0.0 | 0.00 | 0.00 | 0.00 | 87 | 1021.5 |
| 20260902024613 | 53 | 317 | 0.0 | 0.0 | 0.00 | 0.00 | 0.00 | 87 | 1021.6 |
| 20260902023113 | 53 | 317 | 0.0 | 0.0 | 0.00 | 0.00 | 0.00 | 87 | 1021.4 |
| 20260902020113 | 53 | 317 | 0.0 | 0.0 | 0.00 | 0.00 | 0.00 | 86 | 1021.6 |
| 20260902014613 | 53 | 317 | 0.0 | 0.0 | 0.00 | 0.00 | 0.00 | 85 | 1021.6 |
| 20260902013113 | 54 | 317 | 0.0 | 0.0 | 0.00 | 0.00 | 0.00 | 86 | 1021.9 |
| 20260902011612 | 53 | 317 | 0.0 | 0.0 | 0.00 | 0.00 | 0.00 | 86 | 1021.7 |
| 20260902010112 | 53 | 317 | 0.0 | 0.0 | 0.00 | 0.00 | 0.00 | 86 | 1021.8 |
| 20260902004612 | 53 | 317 | 0.0 | 0.0 | 0.00 | 0.00 | 0.00 | 86 | 1021.6 |
| 20260902003112 | 53 | 317 | 0.0 | 0.0 | 0.00 | 0.00 | 0.00 | 85 | 1021.7 |
| 20260902001612 | 53 | 317 | 0.0 | 0.0 | 0.00 | 0.00 | 0.00 | 85 | 1021.7 |
| 20260902000112 | 54 | 317 | 0.0 | 0.0 | 0.00 | 0.00 | 0.00 | 85 | 1021.6 |
| 20260901234612 | 54 | 317 | 0.0 | 0.0 | 0.00 | 0.00 | 0.00 | 84 | 1021.7 |
| 20260901230111 | 55 | 317 | 0.0 | 0.0 | 0.00 | 0.00 | 0.00 | 82 | 1021.9 |
| 20260901224611 | 55 | 317 | 0.0 | 0.0 | 0.00 | 0.00 | 0.00 | 81 | 1021.9 |
| 20260901221612 | 56 | 333 | 2.0 | 3.0 | 0.00 | 0.00 | 0.00 | 81 | 1021.9 |
| 20260901214611 | 56 | 333 | 0.0 | 0.0 | 0.00 | 0.00 | 0.00 | 79 | 1021.7 |
| 20260901213110 | 57 | 333 | 0.0 | 1.0 | 0.00 | 0.00 | 0.00 | 78 | 1021.6 |
| 20260901211611 | 58 | 333 | 0.0 | 0.0 | 0.00 | 0.00 | 0.00 | 76 | 1021.6 |
| 20260901204612 | 59 | 333 | 0.0 | 2.0 | 0.00 | 0.00 | 0.00 | 74 | 1021.6 |
| 20260901203110 | 60 | 333 | 0.0 | 2.0 | 0.00 | 0.00 | 0.00 | 73 | 1021.4 |
| 20260901201610 | 60 | 334 | 2.0 | 3.0 | 0.00 | 0.00 | 0.00 | 72 | 1021.5 |
| 20260901200110 | 60 | 335 | 0.0 | 0.0 | 0.00 | 0.00 | 0.00 | 72 | 1021.5 |
| 20260901193110 | 62 | 335 | 1.0 | 2.0 | 0.00 | 0.00 | 0.00 | 68 | 1021.3 |
| 20260901191610 | 62 | 335 | 0.0 | 0.0 | 0.00 | 0.00 | 0.00 | 67 | 1021.2 |
| 20260901190110 | 63 | 335 | 0.0 | 0.0 | 0.00 | 0.00 | 0.00 | 66 | 1021.1 |
| 20260901184609 | 64 | 335 | 2.0 | 4.0 | 0.00 | 0.00 | 0.00 | 64 | 1020.9 |
| 20260901181609 | 65 | 342 | 2.0 | 5.0 | 0.00 | 0.00 | 0.00 | 62 | 1020.6 |
| 20260901180109 | 67 | 332 | 2.0 | 3.0 | 0.00 | 0.00 | 0.00 | 61 | 1020.5 |
| 20260901174609 | 68 | 332 | 0.0 | 1.0 | 0.00 | 0.00 | 0.00 | 59 | 1020.3 |
| 20260901173109 | 69 | 332 | 2.0 | 3.0 | 0.00 | 0.00 | 0.00 | 56 | 1020.2 |
| 20260901171609 | 70 | 333 | 1.0 | 2.0 | 0.00 | 0.00 | 0.00 | 54 | 1020.2 |
| 20260901170110 | 71 | 321 | 3.0 | 4.0 | 0.00 | 0.00 | 0.00 | 53 | 1020.1 |